| time (UTC) | temp C | wind direction | speed KPH | gust KPH | rain 1hr cm | rain 24hr cm | rain mn cm | humidity % | barometer mb |
| 20260507204545 | 13 | 244 | 12.9 | 30.6 | 0.00 | 2.39 | 2.39 | 75 | 997.8 |
| 20260507203109 | 13 | 265 | 12.9 | 29.0 | 0.00 | 2.39 | 2.39 | 74 | 997.4 |
| 20260507201540 | 13 | 261 | 12.9 | 35.4 | 0.00 | 2.39 | 2.39 | 73 | 997.2 |
| 20260507200041 | 14 | 249 | 12.9 | 33.8 | 0.00 | 2.39 | 2.39 | 72 | 996.5 |
| 20260507194538 | 14 | 267 | 11.3 | 29.0 | 0.00 | 2.39 | 2.39 | 72 | 995.7 |
| 20260507193040 | 14 | 247 | 14.5 | 29.0 | 0.00 | 2.39 | 2.39 | 72 | 995.9 |
| 20260507191539 | 14 | 240 | 9.7 | 25.7 | 0.00 | 2.39 | 2.39 | 73 | 996.0 |
| 20260507190034 | 14 | 234 | 14.5 | 32.2 | 0.00 | 2.39 | 2.39 | 74 | 997.3 |
| 20260507184534 | 14 | 252 | 9.7 | 29.0 | 0.00 | 2.39 | 2.39 | 74 | 997.7 |
| 20260507183033 | 14 | 261 | 12.9 | 25.7 | 0.00 | 2.39 | 2.39 | 74 | 998.0 |
| 20260507181529 | 14 | 223 | 16.1 | 29.0 | 0.00 | 2.39 | 2.39 | 75 | 998.9 |
| 20260507180029 | 14 | 260 | 8.0 | 29.0 | 0.00 | 2.39 | 2.39 | 76 | 999.4 |
| 20260507174537 | 14 | 260 | 11.3 | 25.7 | 0.00 | 2.39 | 2.39 | 77 | 999.0 |
| 20260507173048 | 13 | 242 | 9.7 | 19.3 | 0.00 | 2.39 | 2.39 | 78 | 997.9 |
| 20260507171526 | 13 | 214 | 8.0 | 12.9 | 0.00 | 2.39 | 2.39 | 79 | 997.1 |
| 20260507170024 | 13 | 238 | 6.4 | 22.5 | 0.00 | 2.39 | 2.39 | 79 | 997.7 |
| 20260507164522 | 13 | 300 | 3.2 | 24.1 | 0.00 | 2.39 | 2.39 | 79 | 998.6 |
| 20260507163020 | 13 | 247 | 9.7 | 29.0 | 0.03 | 2.39 | 2.39 | 78 | 999.1 |
| 20260507161519 | 14 | 265 | 14.5 | 24.1 | 0.03 | 2.39 | 2.39 | 78 | 998.6 |
| 20260507160019 | 14 | 231 | 11.3 | 25.7 | 0.03 | 2.39 | 2.39 | 78 | 997.3 |
| 20260507154515 | 14 | 207 | 9.7 | 17.7 | 0.03 | 2.39 | 2.39 | 80 | 997.6 |
| 20260507153013 | 14 | 257 | 8.0 | 29.0 | 0.00 | 2.36 | 2.36 | 81 | 997.9 |
| 20260507151511 | 15 | 286 | 12.9 | 24.1 | 0.00 | 2.36 | 2.36 | 80 | 998.0 |
| 20260507150012 | 15 | 226 | 12.9 | 22.5 | 0.00 | 2.36 | 2.36 | 83 | 997.8 |
| 20260507144509 | 15 | 251 | 9.7 | 25.7 | 0.00 | 2.36 | 2.36 | 86 | 998.5 |
| 20260507143008 | 15 | 244 | 4.8 | 16.1 | 0.00 | 2.36 | 2.36 | 87 | 998.1 |
| 20260507141507 | 15 | 204 | 8.0 | 17.7 | 0.00 | 2.36 | 2.36 | 86 | 997.1 |
| 20260507140007 | 15 | 169 | 8.0 | 16.1 | 0.00 | 2.59 | 2.36 | 86 | 997.2 |
| 20260507134506 | 15 | 192 | 9.7 | 22.5 | 0.00 | 2.59 | 2.36 | 87 | 997.7 |
| 20260507133005 | 15 | 228 | 1.6 | 9.7 | 0.00 | 2.59 | 2.36 | 87 | 998.1 |
| 20260507131501 | 15 | 280 | 0.0 | 9.7 | 0.00 | 2.59 | 2.36 | 88 | 998.5 |
| 20260507130108 | 15 | 275 | 3.2 | 12.9 | 0.00 | 2.59 | 2.36 | 88 | 999.4 |
| 20260507124606 | 15 | 240 | 4.8 | 16.1 | 0.00 | 2.59 | 2.36 | 89 | 998.6 |
| 20260507123056 | 15 | 211 | 11.3 | 19.3 | 0.00 | 2.59 | 2.36 | 89 | 997.0 |
| 20260507121555 | 15 | 236 | 11.3 | 22.5 | 0.00 | 2.59 | 2.36 | 89 | 997.5 |
| 20260507120054 | 15 | 217 | 11.3 | 29.0 | 0.00 | 2.59 | 2.36 | 89 | 997.4 |
| 20260507114608 | 15 | 205 | 16.1 | 37.0 | 0.00 | 2.59 | 2.36 | 89 | 996.1 |
| 20260507113050 | 15 | 190 | 14.5 | 29.0 | 0.00 | 2.59 | 2.36 | 89 | 997.1 |
| 20260507111547 | 15 | 292 | 9.7 | 19.3 | 0.00 | 2.59 | 2.36 | 91 | 997.4 |
| 20260507110045 | 15 | 247 | 4.8 | 16.1 | 0.00 | 2.59 | 2.36 | 93 | 996.3 |
| 20260507104542 | 15 | 219 | 3.2 | 12.9 | 0.00 | 2.59 | 2.36 | 93 | 995.9 |
| 20260507103045 | 15 | 267 | 1.6 | 12.9 | 0.00 | 2.59 | 2.36 | 93 | 996.7 |
| 20260507101545 | 16 | 349 | 3.2 | 8.0 | 0.00 | 2.59 | 2.36 | 94 | 997.5 |
| 20260507100040 | 16 | 227 | 0.0 | 9.7 | 0.00 | 2.59 | 2.36 | 93 | 996.0 |
| 20260507094552 | 16 | 216 | 6.4 | 29.0 | 0.00 | 2.59 | 2.36 | 93 | 995.1 |
| 20260507093034 | 16 | 223 | 4.8 | 14.5 | 0.00 | 2.59 | 2.36 | 94 | 996.3 |
| 20260507091534 | 16 | 232 | 0.0 | 8.0 | 0.00 | 2.59 | 2.36 | 94 | 995.5 |
| 20260507090030 | 16 | 266 | 4.8 | 17.7 | 0.00 | 2.59 | 2.36 | 94 | 995.6 |
| 20260507084529 | 16 | 213 | 6.4 | 14.5 | 0.00 | 2.59 | 2.36 | 94 | 995.8 |
| 20260507083027 | 17 | 223 | 4.8 | 17.7 | 0.00 | 2.59 | 2.36 | 94 | 995.9 |
| 20260507081526 | 17 | 229 | 3.2 | 11.3 | 0.00 | 2.59 | 2.36 | 94 | 995.6 |
| 20260507080024 | 17 | 323 | 0.0 | 9.7 | 0.00 | 2.59 | 2.36 | 94 | 995.9 |
| 20260507074523 | 17 | 147 | 3.2 | 12.9 | 0.03 | 2.59 | 2.36 | 94 | 994.3 |
| 20260507073022 | 17 | 81 | 0.0 | 12.9 | 0.05 | 2.59 | 2.36 | 95 | 995.6 |
| 20260507071522 | 17 | 38 | 1.6 | 12.9 | 0.15 | 2.59 | 2.36 | 95 | 995.8 |
| 20260507070028 | 17 | 46 | 9.7 | 17.7 | 0.25 | 2.59 | 2.36 | 95 | 995.6 |
| 20260507064519 | 17 | 49 | 3.2 | 16.1 | 0.30 | 2.59 | 2.34 | 95 | 996.9 |
| 20260507063016 | 17 | 144 | 9.7 | 20.9 | 0.33 | 2.54 | 2.31 | 94 | 995.7 |
| 20260507061514 | 17 | 173 | 0.0 | 8.0 | 0.33 | 2.46 | 2.21 | 94 | 998.2 |
| 20260507060016 | 17 | 205 | 0.0 | 8.0 | 0.23 | 2.34 | 2.11 | 95 | 998.3 |
| 20260507054510 | 18 | 238 | 6.4 | 12.9 | 0.15 | 2.29 | 2.03 | 95 | 999.1 |
| 20260507053007 | 18 | 250 | 3.2 | 9.7 | 0.15 | 2.18 | 1.93 | 95 | 997.8 |
| 20260507051506 | 18 | 317 | 1.6 | 6.4 | 0.48 | 2.11 | 1.88 | 94 | 997.4 |
| 20260507050015 | 18 | 317 | 1.6 | 20.9 | 1.42 | 2.11 | 1.88 | 94 | 996.8 |
| 20260507044503 | 18 | 212 | 8.0 | 12.9 | 1.68 | 2.11 | 1.88 | 94 | 996.6 |
| 20260507043002 | 18 | 205 | 3.2 | 9.7 | 1.60 | 2.03 | 1.80 | 93 | 997.7 |
| 20260507041559 | 18 | 193 | 4.8 | 24.1 | 1.40 | 1.65 | 1.40 | 92 | 997.6 |
| 20260507040101 | 19 | 198 | 11.3 | 29.0 | 0.43 | 0.69 | 0.43 | 89 | 995.9 |
| 20260507034554 | 22 | 219 | 24.1 | 37.0 | 0.20 | 0.43 | 0.20 | 84 | 995.1 |
| 20260507033058 | 23 | 327 | 8.0 | 22.5 | 0.20 | 0.43 | 0.20 | 85 | 994.7 |
| 20260507031553 | 24 | 355 | 11.3 | 29.0 | 0.00 | 0.23 | 0.00 | 79 | 994.3 |
| 20260507030100 | 24 | 355 | 12.9 | 32.2 | 0.00 | 0.23 | 0.00 | 79 | 995.0 |
| 20260507024543 | 24 | 355 | 14.5 | 29.0 | 0.00 | 0.23 | 0.23 | 79 | 994.8 |
| 20260507023031 | 24 | 5 | 11.3 | 22.5 | 0.00 | 0.23 | 0.23 | 80 | 995.3 |
| 20260507021533 | 24 | 348 | 9.7 | 24.1 | 0.00 | 0.23 | 0.23 | 80 | 995.6 |
| 20260507020130 | 24 | 336 | 14.5 | 25.7 | 0.00 | 0.23 | 0.23 | 80 | 995.9 |
| 20260507014550 | 24 | 348 | 9.7 | 20.9 | 0.00 | 0.23 | 0.23 | 80 | 996.2 |
| 20260507013140 | 24 | 351 | 8.0 | 25.7 | 0.00 | 0.23 | 0.23 | 81 | 996.3 |
| 20260507011539 | 24 | 355 | 9.7 | 24.1 | 0.00 | 0.23 | 0.23 | 81 | 996.4 |
| 20260507010136 | 24 | 17 | 9.7 | 29.0 | 0.00 | 0.23 | 0.23 | 81 | 996.2 |
| 20260507004542 | 25 | 335 | 11.3 | 20.9 | 0.00 | 0.23 | 0.23 | 80 | 996.8 |
| 20260507003141 | 25 | 343 | 8.0 | 30.6 | 0.00 | 0.23 | 0.23 | 80 | 996.7 |
| 20260507001605 | 25 | 5 | 14.5 | 32.2 | 0.00 | 0.23 | 0.23 | 80 | 996.3 |
| 20260507000158 | 24 | 9 | 11.3 | 33.8 | 0.00 | 0.23 | 0.23 | 82 | 996.1 |
| 20260506230024 | 21 | 28 | 4.8 | 17.7 | 0.00 | 0.23 | 0.23 | 86 | 996.1 |
| 20260506224520 | 21 | 17 | 8.0 | 16.1 | 0.00 | 0.23 | 0.23 | 87 | 996.6 |
| 20260506223019 | 21 | 43 | 3.2 | 12.9 | 0.00 | 0.23 | 0.23 | 87 | 997.0 |
| 20260506221514 | 21 | 33 | 4.8 | 14.5 | 0.00 | 0.23 | 0.23 | 87 | 997.3 |
| 20260506220013 | 21 | 38 | 4.8 | 12.9 | 0.00 | 0.23 | 0.23 | 86 | 997.6 |
| 20260506214510 | 21 | 52 | 4.8 | 9.7 | 0.00 | 0.23 | 0.23 | 86 | 998.0 |
| 20260506213007 | 22 | 38 | 0.0 | 8.0 | 0.00 | 0.23 | 0.23 | 85 | 998.3 |
| 20260506211509 | 22 | 49 | 1.6 | 8.0 | 0.00 | 0.23 | 0.23 | 85 | 998.4 |